Flag for Switzerland Weather past 2 weeks in Regensdorf, Zurich, Switzerland

Now
48 °F

Cool.


Feels Like: 47 °F
Forecast: 44 / 67 °F
Wind: 3 mph from Southeast

Location: Zurich-Kloten

Current Time: Aug 22, 2014 at 6:45:32 AM

Latest Report: Aug 22, 2014 at 6:00 AM


Visibility: N/A

Pressure: 30.05 "Hg

Humidity: 94%

Dew point: 47 °F

Location of RegensdorfLocation

Historic Weather in Regensdorf — Graph

°F

Regensdorf temperature yesterday

Maximum temperature yesterday: 68 °F (at 5:00 PM)
Minimum temperature yesterday: 50 °F (at 7:00 AM)
Average temperature yesterday: 59 °F

Past Weeks' High & Low Weather Summary

 TemperatureHumidityPressure
High80 °F (Aug 8, 6:00 PM)100% (Aug 8, 4:00 AM)30.23 "Hg (Aug 8, 4:00 AM)
Low44 °F (Aug 17, 7:00 AM)40% (Aug 17, 4:00 PM)29.67 "Hg (Aug 13, 10:00 AM)
Average62 °F77%29.97 "Hg
* Reported Aug 7 5:00 AM — Aug 22 5:00 AM, Regensdorf, Weather by CustomWeather, © 2014

Note: Actual official high and low records may vary slightly from our data, if they occured in-between our weather recording intervals... More about our weather records

Advertising

Regensdorf weather history for previous 24 hours

 ConditionsComfort  
Time TempWeatherWind HumidityBarometerVisibility
5:00 AM
Aug 22
48 °FPassing clouds.1 mph94%30.05 "Hg12 mi
4:00 AM47 °FCool.1 mph93%30.06 "HgN/A
3:00 AM50 °FCool.2 mph90%30.05 "HgN/A
2:00 AM49 °FPassing clouds.1 mph90%30.06 "Hg16 mi
1:00 AM53 °FCool.1 mph84%30.05 "HgN/A
12:00 AM53 °FCool.1 mph83%30.04 "HgN/A
11:00 PM
Aug 21
55 °FPassing clouds.2 mph75%30.04 "Hg19 mi
10:00 PM60 °FRefreshingly cool.3 mph60%30.02 "HgN/A
9:00 PM61 °FRefreshingly cool.3 mph57%30.01 "HgN/A
8:00 PM62 °FScattered clouds.5 mph56%29.99 "Hg22 mi
7:00 PM65 °FMild.5 mph51%29.98 "HgN/A
6:00 PM67 °FMild.6 mph44%29.97 "HgN/A
5:00 PM68 °FPartly sunny.7 mph42%29.98 "Hg22 mi
4:00 PM67 °FMild.7 mph42%29.99 "HgN/A
3:00 PM66 °FMild.6 mph43%30.01 "HgN/A
2:00 PM66 °FScattered clouds.8 mph41%30.02 "Hg19 mi
1:00 PM64 °FMild.3 mph49%30.04 "HgN/A
12:00 PM63 °FMild.3 mph55%30.05 "HgN/A
11:00 AM62 °FPassing clouds.2 mph66%30.06 "Hg16 mi
10:00 AM58 °FCool.2 mph74%30.08 "HgN/A
9:00 AM55 °FCool.1 mph87%30.09 "HgN/A
8:00 AM53 °FPassing clouds.2 mph91%30.10 "Hg12 mi
7:00 AM50 °FCool.1 mph96%30.10 "HgN/A
6:00 AM53 °FCool.1 mph89%30.08 "HgN/A
Weather by CustomWeather, © 2014

See weather overviewHow to use our weather pages